Back to catalog

STARLINK-5559

AliveCommunicationsSSO
NORAD 56335·PAYLOAD·🇺🇸 United States

Launched Apr 27, 2023 from Vandenberg Space Force Base

Loading…

Next Passes (next 24 hours)

TLE

FreshSource: CelesTrak SupGP

Epoch: Sep 14, 2026, 14:36 UTC

1 56335C 23058U   26257.60881944 -.00063197  00000+0 -19616-2 0  2571
2 56335  97.2853 254.4589 0001566  92.9007 242.0843 15.33474086    15

Track STARLINK-5559 in real time with AllMySat

Download on the App Store